Time,TemperatureF,DewpointF,PressureIn,WindDirection,WindDirectionDegrees,WindSpeedMPH,WindSpeedGustMPH,Humidity,HourlyPrecipIn,Conditions,Clouds,dailyrainin,SolarRadiationWatts/m^2,SoftwareType,DateUTC
2013-01-30 00:00:00,41.3,31.2,30.40,West,273,3.0,5.0,67,0.00,,OVC044,0.00,0.00,VWS V14.01,2013-01-30 08:00:00,
2013-01-30 00:05:00,41.2,31.1,30.40,WSW,250,4.0,7.0,67,0.00,,OVC046,0.00,0.00,VWS V14.01,2013-01-30 08:05:00,
2013-01-30 00:10:00,41.1,31.0,30.40,WSW,254,4.0,8.0,67,0.00,,OVC046,0.00,0.00,VWS V14.01,2013-01-30 08:10:00,
2013-01-30 00:15:00,40.9,30.8,30.40,WSW,240,3.0,6.0,67,0.00,,OVC046,0.00,0.00,VWS V14.01,2013-01-30 08:15:00,
2013-01-30 00:20:00,40.8,30.7,30.40,West,260,3.0,8.0,67,0.00,,OVC046,0.00,0.00,VWS V14.01,2013-01-30 08:20:00,
2013-01-30 00:25:00,40.7,31.0,30.40,WSW,251,3.0,7.0,68,0.00,,OVC046,0.00,0.00,VWS V14.01,2013-01-30 08:25:00,
2013-01-30 00:30:00,40.7,31.0,30.40,West,274,5.0,7.0,68,0.00,,OVC046,0.00,0.00,VWS V14.01,2013-01-30 08:30:00,
2013-01-30 00:35:00,40.7,31.0,30.40,West,270,4.0,6.0,68,0.00,,OVC046,0.00,0.00,VWS V14.01,2013-01-30 08:35:00,
2013-01-30 00:40:00,40.5,30.8,30.39,WSW,254,2.0,6.0,68,0.00,,OVC046,0.00,0.00,VWS V14.01,2013-01-30 08:40:00,
2013-01-30 00:45:00,40.4,30.7,30.39,West,275,4.0,7.0,68,0.00,,OVC046,0.00,0.00,VWS V14.01,2013-01-30 08:45:00,
2013-01-30 00:50:00,40.3,30.6,30.40,West,277,1.0,6.0,68,0.00,,OVC046,0.00,0.00,VWS V14.01,2013-01-30 08:50:00,
2013-01-30 00:55:00,40.2,30.9,30.39,West,279,3.0,4.0,69,0.00,,OVC046,0.00,0.00,VWS V14.01,2013-01-30 08:55:00,
2013-01-30 01:00:00,39.9,30.6,30.39,West,274,1.0,4.0,69,0.00,,OVC046,0.00,0.00,VWS V14.01,2013-01-30 09:00:00,
2013-01-30 01:05:00,39.6,30.3,30.39,WNW,283,0.0,0.0,69,0.00,,OVC046,0.00,0.00,VWS V14.01,2013-01-30 09:05:00,
2013-01-30 01:10:00,39.4,30.1,30.39,WNW,283,1.0,3.0,69,0.00,,OVC046,0.00,0.00,VWS V14.01,2013-01-30 09:10:00,
2013-01-30 01:15:00,38.8,29.5,30.39,WSW,253,2.0,4.0,69,0.00,,OVC046,0.00,0.00,VWS V14.01,2013-01-30 09:15:00,
2013-01-30 01:20:00,38.4,29.8,30.39,WNW,302,2.0,4.0,71,0.00,,OVC046,0.00,0.00,VWS V14.01,2013-01-30 09:20:00,
2013-01-30 01:25:00,38.2,30.0,30.39,West,263,2.0,4.0,72,0.00,,OVC046,0.00,0.00,VWS V14.01,2013-01-30 09:25:00,
2013-01-30 01:30:00,38.1,29.9,30.39,West,259,3.0,6.0,72,0.00,,OVC046,0.00,0.00,VWS V14.01,2013-01-30 09:30:00,
2013-01-30 01:35:00,38.0,29.8,30.39,NNW,332,3.0,3.0,72,0.00,,OVC046,0.00,0.00,VWS V14.01,2013-01-30 09:35:00,
2013-01-30 01:40:00,37.8,29.9,30.39,West,272,2.0,3.0,73,0.00,,OVC046,0.00,0.00,VWS V14.01,2013-01-30 09:40:00,
2013-01-30 01:45:00,37.8,29.9,30.39,West,272,5.0,8.0,73,0.00,,OVC046,0.00,0.00,VWS V14.01,2013-01-30 09:45:00,
2013-01-30 01:50:00,37.9,30.0,30.39,WNW,290,1.0,7.0,73,0.00,,OVC046,0.00,0.00,VWS V14.01,2013-01-30 09:50:00,
2013-01-30 01:55:00,37.8,29.9,30.39,NW,311,2.0,4.0,73,0.00,,OVC046,0.00,0.00,VWS V14.01,2013-01-30 09:55:00,
2013-01-30 02:00:00,37.7,29.8,30.39,NW,311,0.0,3.0,73,0.00,,OVC044,0.00,0.00,VWS V14.01,2013-01-30 10:00:00,
2013-01-30 02:05:00,37.4,29.2,30.39,West,265,2.0,2.0,72,0.00,,OVC044,0.00,0.00,VWS V14.01,2013-01-30 10:05:00,
2013-01-30 02:10:00,37.1,29.6,30.39,WSW,248,1.0,1.0,74,0.00,,OVC044,0.00,0.00,VWS V14.01,2013-01-30 10:10:00,
2013-01-30 02:15:00,37.0,29.2,30.39,WSW,248,1.0,1.0,73,0.00,,OVC044,0.00,0.00,VWS V14.01,2013-01-30 10:15:00,
2013-01-30 02:20:00,36.8,29.0,30.38,West,279,0.0,1.0,73,0.00,,OVC044,0.00,0.00,VWS V14.01,2013-01-30 10:20:00,
2013-01-30 02:25:00,36.4,28.9,30.39,West,279,0.0,0.0,74,0.00,,OVC044,0.00,0.00,VWS V14.01,2013-01-30 10:25:00,
2013-01-30 02:30:00,36.0,28.5,30.38,West,279,0.0,0.0,74,0.00,,OVC044,0.00,0.00,VWS V14.01,2013-01-30 10:30:00,
2013-01-30 02:35:00,35.4,28.3,30.39,West,279,0.0,0.0,75,0.00,,OVC044,0.00,0.00,VWS V14.01,2013-01-30 10:35:00,
2013-01-30 02:40:00,35.3,28.5,30.38,West,279,0.0,0.0,76,0.00,,OVC044,0.00,0.00,VWS V14.01,2013-01-30 10:40:00,
2013-01-30 02:45:00,34.9,28.1,30.38,West,279,0.0,0.0,76,0.00,,OVC044,0.00,0.00,VWS V14.01,2013-01-30 10:45:00,
2013-01-30 02:50:00,34.2,27.1,30.38,SSW,194,1.0,2.0,75,0.00,,OVC044,0.00,0.00,VWS V14.01,2013-01-30 10:50:00,
2013-01-30 02:55:00,32.4,25.7,30.39,SSW,194,0.0,0.0,76,0.00,,OVC044,0.00,0.00,VWS V14.01,2013-01-30 10:55:00,
2013-01-30 03:00:00,32.1,26.0,30.39,SSW,194,0.0,0.0,78,0.00,,CLR,0.00,0.00,VWS V14.01,2013-01-30 11:00:00,
2013-01-30 03:05:00,31.8,25.7,30.39,SSW,194,1.0,2.0,78,0.00,,CLR,0.00,0.00,VWS V14.01,2013-01-30 11:05:00,
2013-01-30 03:10:00,30.9,25.2,30.39,SSW,194,2.0,2.0,79,0.00,,CLR,0.00,0.00,VWS V14.01,2013-01-30 11:10:00,
2013-01-30 03:15:00,30.4,25.3,30.39,SSW,194,0.0,1.0,81,0.00,,CLR,0.00,0.00,VWS V14.01,2013-01-30 11:15:00,
2013-01-30 03:20:00,30.4,25.6,30.39,SSW,194,0.0,1.0,82,0.00,,CLR,0.00,0.00,VWS V14.01,2013-01-30 11:20:00,
2013-01-30 03:25:00,30.5,26.0,30.39,SSW,194,0.0,1.0,83,0.00,,CLR,0.00,0.00,VWS V14.01,2013-01-30 11:25:00,
2013-01-30 03:30:00,30.6,26.1,30.39,SSW,194,0.0,0.0,83,0.00,,CLR,0.00,0.00,VWS V14.01,2013-01-30 11:30:00,
2013-01-30 03:35:00,30.6,26.1,30.39,SSW,194,0.0,0.0,83,0.00,,CLR,0.00,0.00,VWS V14.01,2013-01-30 11:35:00,
2013-01-30 03:40:00,30.7,26.2,30.38,SSW,194,0.0,0.0,83,0.00,,CLR,0.00,0.00,VWS V14.01,2013-01-30 11:40:00,
2013-01-30 03:45:00,30.8,26.5,30.38,SSW,194,1.0,1.0,84,0.00,,CLR,0.00,0.00,VWS V14.01,2013-01-30 11:45:00,
2013-01-30 03:50:00,31.1,26.8,30.38,SSW,194,0.0,1.0,84,0.00,,CLR,0.00,0.00,VWS V14.01,2013-01-30 11:50:00,
2013-01-30 03:55:00,31.1,26.8,30.38,SSW,194,0.0,0.0,84,0.00,,CLR,0.00,0.00,VWS V14.01,2013-01-30 11:55:00,
2013-01-30 04:00:00,31.1,26.8,30.38,SSW,194,0.0,0.0,84,0.00,,SCT043,0.00,0.00,VWS V14.01,2013-01-30 12:00:00,
2013-01-30 04:05:00,31.1,26.8,30.37,SSW,194,0.0,0.0,84,0.00,,SCT043,0.00,0.00,VWS V14.01,2013-01-30 12:05:00,
2013-01-30 04:10:00,31.0,26.5,30.38,South,180,4.0,4.0,83,0.00,,SCT043,0.00,0.00,VWS V14.01,2013-01-30 12:10:00,
2013-01-30 04:15:00,30.4,25.9,30.38,SSE,156,0.0,0.0,83,0.00,,SCT043,0.00,0.00,VWS V14.01,2013-01-30 12:15:00,
2013-01-30 04:20:00,30.2,26.0,30.38,SSE,156,0.0,0.0,84,0.00,,SCT043,0.00,0.00,VWS V14.01,2013-01-30 12:20:00,
2013-01-30 04:25:00,29.9,25.4,30.39,SSE,156,0.0,0.0,83,0.00,,SCT043,0.00,0.00,VWS V14.01,2013-01-30 12:25:00,
2013-01-30 04:30:00,29.5,25.0,30.39,SSE,156,0.0,0.0,83,0.00,,SCT043,0.00,0.00,VWS V14.01,2013-01-30 12:30:00,
2013-01-30 04:35:00,29.2,25.0,30.39,SSE,156,2.0,2.0,84,0.00,,SCT043,0.00,0.00,VWS V14.01,2013-01-30 12:35:00,
2013-01-30 04:40:00,29.3,25.4,30.39,SSE,156,0.0,0.0,85,0.00,,SCT043,0.00,0.00,VWS V14.01,2013-01-30 12:40:00,
2013-01-30 04:45:00,29.3,25.4,30.39,SSE,156,0.0,0.0,85,0.00,,SCT043,0.00,0.00,VWS V14.01,2013-01-30 12:45:00,
2013-01-30 04:50:00,29.3,25.4,30.39,SSE,156,0.0,0.0,85,0.00,,SCT043,0.00,0.00,VWS V14.01,2013-01-30 12:50:00,
2013-01-30 04:55:00,29.1,25.2,30.38,SSE,156,0.0,0.0,85,0.00,,SCT043,0.00,0.00,VWS V14.01,2013-01-30 12:55:00,
2013-01-30 05:00:00,28.5,24.3,30.38,SSE,156,0.0,0.0,84,0.00,,CLR,0.00,0.00,VWS V14.01,2013-01-30 13:00:00,
2013-01-30 05:05:00,28.3,24.1,30.38,SSE,156,0.0,0.0,84,0.00,,CLR,0.00,0.00,VWS V14.01,2013-01-30 13:05:00,
2013-01-30 05:10:00,28.2,24.0,30.39,SSE,156,0.0,0.0,84,0.00,,CLR,0.00,0.00,VWS V14.01,2013-01-30 13:10:00,
2013-01-30 05:15:00,28.1,23.9,30.39,SSE,156,0.0,0.0,84,0.00,,CLR,0.00,0.00,VWS V14.01,2013-01-30 13:15:00,
2013-01-30 05:20:00,28.0,23.8,30.38,SSE,156,0.0,0.0,84,0.00,,CLR,0.00,0.00,VWS V14.01,2013-01-30 13:20:00,
2013-01-30 05:25:00,27.8,23.6,30.38,SSE,156,0.0,0.0,84,0.00,,CLR,0.00,0.00,VWS V14.01,2013-01-30 13:25:00,
2013-01-30 05:30:00,27.7,23.8,30.38,SSE,156,0.0,0.0,85,0.00,,CLR,0.00,0.00,VWS V14.01,2013-01-30 13:30:00,
2013-01-30 05:35:00,27.6,24.0,30.38,SSE,156,0.0,0.0,86,0.00,,CLR,0.00,0.00,VWS V14.01,2013-01-30 13:35:00,
2013-01-30 05:40:00,27.8,24.4,30.38,SSE,156,0.0,2.0,87,0.00,,CLR,0.00,0.00,VWS V14.01,2013-01-30 13:40:00,
2013-01-30 05:45:00,27.9,24.5,30.38,SSE,157,3.0,3.0,87,0.00,,CLR,0.00,0.00,VWS V14.01,2013-01-30 13:45:00,
2013-01-30 05:50:00,28.4,25.3,30.39,SSW,211,1.0,2.0,88,0.00,,CLR,0.00,0.00,VWS V14.01,2013-01-30 13:50:00,
2013-01-30 05:56:00,28.9,26.1,30.39,SSW,211,2.0,2.0,89,0.00,,CLR,0.00,0.00,VWS V14.01,2013-01-30 13:56:00,
2013-01-30 06:01:00,29.2,26.4,30.39,SSW,211,0.0,0.0,89,0.00,,CLR,0.00,0.00,VWS V14.01,2013-01-30 14:01:00,
2013-01-30 06:06:00,29.0,25.9,30.40,SSW,211,0.0,0.0,88,0.00,,CLR,0.00,0.00,VWS V14.01,2013-01-30 14:06:00,
2013-01-30 06:11:00,28.8,25.7,30.39,SSW,211,0.0,0.0,88,0.00,,CLR,0.00,0.00,VWS V14.01,2013-01-30 14:11:00,
2013-01-30 06:16:00,28.5,25.1,30.40,SSW,211,0.0,0.0,87,0.00,,CLR,0.00,0.00,VWS V14.01,2013-01-30 14:16:00,
2013-01-30 06:21:00,28.5,25.1,30.40,SSW,211,0.0,0.0,87,0.00,,CLR,0.00,0.00,VWS V14.01,2013-01-30 14:21:00,
2013-01-30 06:26:00,28.5,25.1,30.40,SSW,211,0.0,0.0,87,0.00,,SCT260,0.00,0.00,VWS V14.01,2013-01-30 14:26:00,
2013-01-30 06:31:00,28.3,24.7,30.40,SSW,211,0.0,0.0,86,0.00,,SCT260,0.00,0.00,VWS V14.01,2013-01-30 14:31:00,
2013-01-30 06:36:00,27.8,24.2,30.40,SSW,211,0.0,1.0,86,0.00,,SCT260,0.00,0.00,VWS V14.01,2013-01-30 14:36:00,
2013-01-30 06:41:00,27.7,24.1,30.40,SSW,211,0.0,0.0,86,0.00,,SCT260,0.00,0.00,VWS V14.01,2013-01-30 14:41:00,
2013-01-30 06:46:00,27.6,24.0,30.40,SSW,211,0.0,0.0,86,0.00,,SCT260,0.00,0.00,VWS V14.01,2013-01-30 14:46:00,
2013-01-30 06:51:00,27.4,23.8,30.41,SSW,211,0.0,0.0,86,0.00,,SCT260,0.00,0.00,VWS V14.01,2013-01-30 14:51:00,
2013-01-30 06:56:00,27.2,23.3,30.41,SSW,211,0.0,0.0,85,0.00,,SCT260,0.00,0.00,VWS V14.01,2013-01-30 14:56:00,
2013-01-30 07:01:00,27.0,23.1,30.41,SSW,211,0.0,0.0,85,0.00,,BKN260,0.00,0.00,VWS V14.01,2013-01-30 15:01:00,
2013-01-30 07:06:00,26.9,23.3,30.41,SSW,211,0.0,0.0,86,0.00,,BKN260,0.00,0.00,VWS V14.01,2013-01-30 15:06:00,
2013-01-30 07:11:00,26.8,23.2,30.41,SSW,211,0.0,0.0,86,0.00,,BKN260,0.00,9.00,VWS V14.01,2013-01-30 15:11:00,
2013-01-30 07:16:00,26.7,23.1,30.41,SSW,211,0.0,0.0,86,0.00,,BKN260,0.00,11.00,VWS V14.01,2013-01-30 15:16:00,
2013-01-30 07:21:00,26.4,23.1,30.41,SSW,211,1.0,2.0,87,0.00,,BKN260,0.00,18.00,VWS V14.01,2013-01-30 15:21:00,
2013-01-30 07:26:00,26.5,23.4,30.41,SSW,211,0.0,0.0,88,0.00,,BKN260,0.00,21.00,VWS V14.01,2013-01-30 15:26:00,
2013-01-30 07:31:00,27.1,24.3,30.38,SSW,211,0.0,1.0,89,0.00,,BKN260,0.00,26.00,VWS V14.01,2013-01-30 15:31:00,
2013-01-30 07:36:00,28.0,25.2,30.40,SSW,211,0.0,1.0,89,0.00,,BKN260,0.00,33.00,VWS V14.01,2013-01-30 15:36:00,
2013-01-30 07:41:00,28.7,25.9,30.40,SSW,211,0.0,0.0,89,0.00,,BKN260,0.00,44.00,VWS V14.01,2013-01-30 15:41:00,
2013-01-30 07:46:00,29.5,26.4,30.42,SSW,211,0.0,2.0,88,0.00,,BKN260,0.00,56.00,VWS V14.01,2013-01-30 15:46:00,
2013-01-30 07:51:00,29.6,26.2,30.42,SSW,211,0.0,1.0,87,0.00,,BKN260,0.00,65.00,VWS V14.01,2013-01-30 15:51:00,
2013-01-30 07:56:00,30.6,27.5,30.42,SSW,211,0.0,0.0,88,0.00,,BKN260,0.00,76.00,VWS V14.01,2013-01-30 15:56:00,
2013-01-30 08:01:00,32.1,28.7,30.42,SSW,211,0.0,1.0,87,0.00,,OVC260,0.00,88.00,VWS V14.01,2013-01-30 16:01:00,
2013-01-30 08:06:00,33.1,29.1,30.42,SSW,211,0.0,0.0,85,0.00,,OVC260,0.00,91.00,VWS V14.01,2013-01-30 16:06:00,
2013-01-30 08:11:00,33.5,29.5,30.43,SSW,211,1.0,2.0,85,0.00,,OVC260,0.00,104.00,VWS V14.01,2013-01-30 16:11:00,
2013-01-30 08:16:00,34.7,30.1,30.43,SSW,211,0.0,2.0,83,0.00,,OVC260,0.00,113.00,VWS V14.01,2013-01-30 16:16:00,
2013-01-30 08:21:00,35.2,30.3,30.43,SSW,211,1.0,3.0,82,0.00,,OVC260,0.00,146.00,VWS V14.01,2013-01-30 16:21:00,
2013-01-30 08:26:00,36.2,31.2,30.44,SW,236,1.0,4.0,82,0.00,,OVC260,0.00,165.00,VWS V14.01,2013-01-30 16:26:00,
2013-01-30 08:31:00,37.0,31.1,30.44,WSW,257,2.0,2.0,79,0.00,,OVC260,0.00,179.00,VWS V14.01,2013-01-30 16:31:00,
2013-01-30 08:36:00,37.7,31.5,30.44,WSW,247,4.0,6.0,78,0.00,,OVC260,0.00,190.00,VWS V14.01,2013-01-30 16:36:00,
2013-01-30 08:41:00,38.0,31.8,30.44,West,260,4.0,5.0,78,0.00,,OVC260,0.00,199.00,VWS V14.01,2013-01-30 16:41:00,
2013-01-30 08:46:00,38.7,31.8,30.44,West,264,3.0,5.0,76,0.00,,OVC260,0.00,218.00,VWS V14.01,2013-01-30 16:46:00,
2013-01-30 08:51:00,39.5,31.9,30.44,West,261,3.0,4.0,74,0.00,,OVC260,0.00,237.00,VWS V14.01,2013-01-30 16:51:00,
2013-01-30 08:56:00,40.1,31.8,30.44,West,264,4.0,4.0,72,0.00,,OVC260,0.00,244.00,VWS V14.01,2013-01-30 16:56:00,
2013-01-30 09:01:00,41.0,32.7,30.44,West,268,5.0,8.0,72,0.00,,OVC260,0.00,265.00,VWS V14.01,2013-01-30 17:01:00,
2013-01-30 09:06:00,41.0,32.3,30.44,West,280,2.0,5.0,71,0.00,,OVC260,0.00,271.00,VWS V14.01,2013-01-30 17:06:00,
2013-01-30 09:11:00,41.6,32.9,30.44,West,266,6.0,6.0,71,0.00,,OVC260,0.00,292.00,VWS V14.01,2013-01-30 17:11:00,
2013-01-30 09:16:00,42.3,32.5,30.44,WSW,249,3.0,6.0,68,0.00,,OVC260,0.00,302.00,VWS V14.01,2013-01-30 17:16:00,
2013-01-30 09:21:00,42.7,32.9,30.44,West,271,3.0,5.0,68,0.00,,OVC260,0.00,313.00,VWS V14.01,2013-01-30 17:21:00,
2013-01-30 09:26:00,43.2,32.6,30.44,WSW,250,4.0,7.0,66,0.00,,OVC260,0.00,327.00,VWS V14.01,2013-01-30 17:26:00,
2013-01-30 09:31:00,44.0,33.4,30.44,West,266,5.0,5.0,66,0.00,,OVC260,0.00,341.00,VWS V14.01,2013-01-30 17:31:00,
2013-01-30 09:37:00,44.0,33.0,30.44,SW,231,3.0,5.0,65,0.00,,OVC260,0.00,348.00,VWS V14.01,2013-01-30 17:37:00,
2013-01-30 09:42:00,43.8,32.8,30.44,WSW,252,3.0,4.0,65,0.00,,OVC260,0.00,357.00,VWS V14.01,2013-01-30 17:42:00,
2013-01-30 09:47:00,44.5,33.5,30.44,SW,230,1.0,4.0,65,0.00,,OVC260,0.00,371.00,VWS V14.01,2013-01-30 17:47:00,
2013-01-30 09:52:00,45.1,33.3,30.44,WSW,248,2.0,5.0,63,0.00,,OVC260,0.00,381.00,VWS V14.01,2013-01-30 17:52:00,
2013-01-30 09:57:00,45.7,33.8,30.44,WSW,249,3.0,8.0,63,0.00,,OVC260,0.00,401.00,VWS V14.01,2013-01-30 17:57:00,
2013-01-30 10:02:00,46.4,33.7,30.43,WSW,254,5.0,7.0,61,0.00,,OVC260,0.00,404.00,VWS V14.01,2013-01-30 18:02:00,
2013-01-30 10:07:00,46.6,33.9,30.43,West,271,1.0,7.0,61,0.00,,OVC260,0.00,415.00,VWS V14.01,2013-01-30 18:07:00,
2013-01-30 10:12:00,47.2,33.6,30.43,West,259,5.0,7.0,59,0.00,,OVC260,0.00,417.00,VWS V14.01,2013-01-30 18:12:00,
2013-01-30 10:17:00,46.8,33.2,30.43,WNW,286,4.0,6.0,59,0.00,,OVC260,0.00,422.00,VWS V14.01,2013-01-30 18:17:00,
2013-01-30 10:22:00,47.3,33.7,30.43,WNW,288,6.0,8.0,59,0.00,,OVC260,0.00,417.00,VWS V14.01,2013-01-30 18:22:00,
2013-01-30 10:27:00,47.2,33.6,30.43,WNW,301,1.0,3.0,59,0.00,,OVC260,0.00,445.00,VWS V14.01,2013-01-30 18:27:00,
2013-01-30 10:32:00,48.1,34.0,30.43,West,268,9.0,9.0,58,0.00,,OVC260,0.00,438.00,VWS V14.01,2013-01-30 18:32:00,
2013-01-30 10:37:00,48.4,33.9,30.43,WNW,286,1.0,8.0,57,0.00,,OVC260,0.00,450.00,VWS V14.01,2013-01-30 18:37:00,
2013-01-30 10:42:00,50.1,34.1,30.43,WSW,246,5.0,7.0,54,0.00,,OVC260,0.00,469.00,VWS V14.01,2013-01-30 18:42:00,
2013-01-30 10:47:00,49.9,33.9,30.43,WSW,244,4.0,5.0,54,0.00,,OVC260,0.00,482.00,VWS V14.01,2013-01-30 18:47:00,
2013-01-30 10:52:00,50.5,34.5,30.43,West,280,3.0,5.0,54,0.00,,OVC260,0.00,487.00,VWS V14.01,2013-01-30 18:52:00,
2013-01-30 10:57:00,50.5,33.5,30.43,SW,216,5.0,6.0,52,0.00,,OVC260,0.00,483.00,VWS V14.01,2013-01-30 18:57:00,
2013-01-30 11:02:00,50.5,34.0,30.43,West,263,3.0,4.0,53,0.00,,OVC260,0.00,497.00,VWS V14.01,2013-01-30 19:02:00,
2013-01-30 11:07:00,51.3,34.3,30.43,West,262,4.0,4.0,52,0.00,,OVC260,0.00,504.00,VWS V14.01,2013-01-30 19:07:00,
2013-01-30 11:12:00,50.7,33.2,30.43,WNW,290,1.0,5.0,51,0.00,,OVC260,0.00,508.00,VWS V14.01,2013-01-30 19:12:00,
2013-01-30 11:17:00,51.8,33.8,30.42,WSW,246,4.0,7.0,50,0.00,,OVC260,0.00,519.00,VWS V14.01,2013-01-30 19:17:00,
2013-01-30 11:22:00,52.7,34.1,30.42,West,276,0.0,4.0,49,0.00,,OVC260,0.00,515.00,VWS V14.01,2013-01-30 19:22:00,
2013-01-30 11:27:00,52.4,33.8,30.42,WSW,253,5.0,6.0,49,0.00,,OVC260,0.00,531.00,VWS V14.01,2013-01-30 19:27:00,
2013-01-30 11:32:00,52.3,33.7,30.42,WSW,246,1.0,5.0,49,0.00,,OVC260,0.00,499.00,VWS V14.01,2013-01-30 19:32:00,
2013-01-30 11:37:00,53.1,34.0,30.42,West,266,4.0,6.0,48,0.00,,OVC260,0.00,531.00,VWS V14.01,2013-01-30 19:37:00,
2013-01-30 11:42:00,52.7,34.1,30.42,WNW,282,5.0,8.0,49,0.00,,OVC260,0.00,529.00,VWS V14.01,2013-01-30 19:42:00,
2013-01-30 11:47:00,52.8,33.7,30.41,WSW,257,6.0,7.0,48,0.00,,OVC260,0.00,534.00,VWS V14.01,2013-01-30 19:47:00,
2013-01-30 11:52:00,52.8,33.7,30.41,SW,233,2.0,4.0,48,0.00,,OVC260,0.00,534.00,VWS V14.01,2013-01-30 19:52:00,
2013-01-30 11:57:00,53.4,33.7,30.41,NNW,331,3.0,6.0,47,0.00,,OVC260,0.00,534.00,VWS V14.01,2013-01-30 19:57:00,
2013-01-30 12:02:00,52.8,33.2,30.40,NW,314,4.0,9.0,47,0.00,,OVC260,0.00,540.00,VWS V14.01,2013-01-30 20:02:00,
2013-01-30 12:07:00,53.5,33.2,30.40,WNW,298,5.0,6.0,46,0.00,,OVC260,0.00,531.00,VWS V14.01,2013-01-30 20:07:00,
2013-01-30 12:12:00,54.0,34.2,30.40,WSW,243,5.0,6.0,47,0.00,,OVC260,0.00,534.00,VWS V14.01,2013-01-30 20:12:00,
2013-01-30 12:17:00,53.4,33.2,30.40,West,259,2.0,8.0,46,0.00,,OVC260,0.00,533.00,VWS V14.01,2013-01-30 20:17:00,
2013-01-30 12:22:00,54.0,33.2,30.39,West,264,2.0,7.0,45,0.00,,OVC260,0.00,543.00,VWS V14.01,2013-01-30 20:22:00,
2013-01-30 12:27:00,53.6,32.8,30.39,WSW,240,6.0,8.0,45,0.00,,OVC260,0.00,512.00,VWS V14.01,2013-01-30 20:27:00,
2013-01-30 12:32:00,54.3,33.4,30.39,NNW,330,7.0,8.0,45,0.00,,OVC260,0.00,534.00,VWS V14.01,2013-01-30 20:32:00,
2013-01-30 12:37:00,54.6,32.6,30.38,SW,234,1.0,7.0,43,0.00,,OVC260,0.00,534.00,VWS V14.01,2013-01-30 20:37:00,
2013-01-30 12:42:00,55.3,33.2,30.38,WNW,294,2.0,5.0,43,0.00,,OVC260,0.00,520.00,VWS V14.01,2013-01-30 20:42:00,
2013-01-30 12:47:00,55.3,33.2,30.38,WSW,244,5.0,6.0,43,0.00,,OVC260,0.00,527.00,VWS V14.01,2013-01-30 20:47:00,
2013-01-30 12:52:00,54.1,31.5,30.37,West,262,3.0,9.0,42,0.00,,OVC260,0.00,522.00,VWS V14.01,2013-01-30 20:52:00,
2013-01-30 12:57:00,54.0,32.0,30.37,WNW,291,2.0,7.0,43,0.00,,OVC260,0.00,517.00,VWS V14.01,2013-01-30 20:57:00,
2013-01-30 13:02:00,55.2,31.9,30.37,WNW,292,6.0,7.0,41,0.00,,OVC260,0.00,519.00,VWS V14.01,2013-01-30 21:02:00,
2013-01-30 13:07:00,54.9,31.7,30.36,West,272,7.0,11.0,41,0.00,,OVC260,0.00,517.00,VWS V14.01,2013-01-30 21:07:00,
2013-01-30 13:12:00,55.8,31.2,30.36,WSW,249,6.0,8.0,39,0.00,,OVC260,0.00,506.00,VWS V14.01,2013-01-30 21:12:00,
2013-01-30 13:17:00,56.4,32.4,30.36,West,269,5.0,6.0,40,0.00,,OVC260,0.00,506.00,VWS V14.01,2013-01-30 21:17:00,
2013-01-30 13:22:00,56.6,31.3,30.36,West,268,3.0,7.0,38,0.00,,OVC260,0.00,480.00,VWS V14.01,2013-01-30 21:22:00,
2013-01-30 13:27:00,56.6,32.0,30.35,NW,317,4.0,4.0,39,0.00,,OVC260,0.00,489.00,VWS V14.01,2013-01-30 21:27:00,
2013-01-30 13:32:00,56.4,31.1,30.35,West,260,4.0,7.0,38,0.00,,OVC260,0.00,489.00,VWS V14.01,2013-01-30 21:32:00,
2013-01-30 13:37:00,55.0,30.5,30.35,NNW,332,2.0,5.0,39,0.00,,OVC260,0.00,483.00,VWS V14.01,2013-01-30 21:37:00,
2013-01-30 13:42:00,55.0,30.5,30.35,North,350,3.0,7.0,39,0.00,,OVC260,0.00,476.00,VWS V14.01,2013-01-30 21:42:00,
2013-01-30 13:47:00,55.0,29.2,30.35,NW,322,4.0,4.0,37,0.00,,OVC260,0.00,466.00,VWS V14.01,2013-01-30 21:47:00,
2013-01-30 13:52:00,55.1,30.0,30.35,NW,319,5.0,7.0,38,0.00,,OVC260,0.00,457.00,VWS V14.01,2013-01-30 21:52:00,
2013-01-30 13:57:00,55.5,30.3,30.35,West,265,0.0,5.0,38,0.00,,OVC260,0.00,450.00,VWS V14.01,2013-01-30 21:57:00,
2013-01-30 14:02:00,55.4,30.2,30.35,NW,317,4.0,8.0,38,0.00,,BKN260,0.00,441.00,VWS V14.01,2013-01-30 22:02:00,
2013-01-30 14:07:00,55.1,30.6,30.35,NNW,344,2.0,4.0,39,0.00,,BKN260,0.00,427.00,VWS V14.01,2013-01-30 22:07:00,
2013-01-30 14:12:00,55.5,31.6,30.35,West,259,3.0,5.0,40,0.00,,BKN260,0.00,427.00,VWS V14.01,2013-01-30 22:12:00,
2013-01-30 14:17:00,55.4,30.9,30.35,North,355,4.0,5.0,39,0.00,,BKN260,0.00,404.00,VWS V14.01,2013-01-30 22:17:00,
2013-01-30 14:22:00,55.5,31.0,30.35,WNW,288,6.0,6.0,39,0.00,,BKN260,0.00,410.00,VWS V14.01,2013-01-30 22:22:00,
2013-01-30 14:27:00,56.5,31.2,30.35,WNW,293,1.0,7.0,38,0.00,,BKN260,0.00,396.00,VWS V14.01,2013-01-30 22:27:00,
2013-01-30 14:32:00,56.4,31.8,30.35,North,360,3.0,7.0,39,0.00,,BKN260,0.00,387.00,VWS V14.01,2013-01-30 22:32:00,
2013-01-30 14:37:00,55.8,31.2,30.35,North,5,6.0,9.0,39,0.00,,BKN260,0.00,381.00,VWS V14.01,2013-01-30 22:37:00,
2013-01-30 14:42:00,55.0,31.1,30.35,NNW,333,1.0,3.0,40,0.00,,BKN260,0.00,369.00,VWS V14.01,2013-01-30 22:42:00,
2013-01-30 14:47:00,56.0,31.4,30.35,West,268,2.0,6.0,39,0.00,,BKN260,0.00,357.00,VWS V14.01,2013-01-30 22:47:00,
2013-01-30 14:52:00,55.4,31.5,30.35,NNW,329,4.0,5.0,40,0.00,,BKN260,0.00,345.00,VWS V14.01,2013-01-30 22:52:00,
2013-01-30 14:57:00,55.1,31.2,30.35,NNE,18,1.0,6.0,40,0.00,,BKN260,0.00,329.00,VWS V14.01,2013-01-30 22:57:00,
2013-01-30 15:02:00,55.9,31.3,30.35,East,89,1.0,2.0,39,0.00,,BKN260,0.00,323.00,VWS V14.01,2013-01-30 23:02:00,
2013-01-30 15:07:00,56.0,31.4,30.35,East,90,0.0,1.0,39,0.00,,BKN260,0.00,311.00,VWS V14.01,2013-01-30 23:07:00,
2013-01-30 15:12:00,56.2,31.6,30.35,West,275,0.0,4.0,39,0.00,,BKN260,0.00,297.00,VWS V14.01,2013-01-30 23:12:00,
2013-01-30 15:17:00,55.1,31.2,30.35,NW,315,1.0,3.0,40,0.00,,BKN260,0.00,283.00,VWS V14.01,2013-01-30 23:17:00,
2013-01-30 15:22:00,55.1,31.2,30.35,NNW,346,2.0,3.0,40,0.00,,BKN260,0.00,260.00,VWS V14.01,2013-01-30 23:22:00,
2013-01-30 15:27:00,55.9,31.3,30.35,North,355,2.0,2.0,39,0.00,,BKN260,0.00,251.00,VWS V14.01,2013-01-30 23:27:00,
2013-01-30 15:32:00,55.6,31.7,30.35,North,355,0.0,2.0,40,0.00,,BKN260,0.00,237.00,VWS V14.01,2013-01-30 23:32:00,
2013-01-30 15:37:00,55.8,31.2,30.35,NNE,28,1.0,4.0,39,0.00,,BKN260,0.00,204.00,VWS V14.01,2013-01-30 23:37:00,
2013-01-30 15:42:00,55.4,31.5,30.35,NNE,28,0.0,1.0,40,0.00,,BKN260,0.00,190.00,VWS V14.01,2013-01-30 23:42:00,
2013-01-30 15:47:00,56.3,31.7,30.35,NNE,28,1.0,1.0,39,0.00,,BKN260,0.00,153.00,VWS V14.01,2013-01-30 23:47:00,
2013-01-30 15:52:00,56.3,31.7,30.35,NNE,28,0.0,1.0,39,0.00,,BKN260,0.00,156.00,VWS V14.01,2013-01-30 23:52:00,
2013-01-30 15:57:00,55.3,31.4,30.35,NNW,343,0.0,0.0,40,0.00,,BKN260,0.00,142.00,VWS V14.01,2013-01-30 23:57:00,
2013-01-30 16:02:00,54.9,31.0,30.35,North,9,0.0,2.0,40,0.00,,BKN260,0.00,128.00,VWS V14.01,2013-01-31 00:02:00,
2013-01-30 16:07:00,54.9,31.0,30.35,North,355,2.0,3.0,40,0.00,,BKN260,0.00,113.00,VWS V14.01,2013-01-31 00:07:00,
2013-01-30 16:12:00,54.8,31.0,30.35,North,5,0.0,1.0,40,0.00,,BKN260,0.00,102.00,VWS V14.01,2013-01-31 00:12:00,
2013-01-30 16:17:00,54.8,31.0,30.35,NW,322,0.0,3.0,40,0.00,,BKN260,0.00,90.00,VWS V14.01,2013-01-31 00:17:00,
2013-01-30 16:22:00,54.5,31.3,30.35,NE,44,3.0,5.0,41,0.00,,BKN260,0.00,76.00,VWS V14.01,2013-01-31 00:22:00,
2013-01-30 16:27:00,54.2,31.0,30.35,NE,34,4.0,5.0,41,0.00,,BKN260,0.00,60.00,VWS V14.01,2013-01-31 00:27:00,
2013-01-30 16:32:00,54.0,31.5,30.35,NE,41,2.0,3.0,42,0.00,,BKN260,0.00,46.00,VWS V14.01,2013-01-31 00:32:00,
2013-01-30 16:37:00,54.0,31.5,30.35,NE,41,0.0,3.0,42,0.00,,BKN260,0.00,32.00,VWS V14.01,2013-01-31 00:37:00,
2013-01-30 16:42:00,53.8,31.3,30.34,NE,41,0.0,1.0,42,0.00,,BKN260,0.00,21.00,VWS V14.01,2013-01-31 00:42:00,
2013-01-30 16:47:00,53.4,31.5,30.34,NE,41,0.0,1.0,43,0.00,,BKN260,0.00,18.00,VWS V14.01,2013-01-31 00:47:00,
2013-01-30 16:52:00,53.1,31.2,30.34,NE,41,0.0,1.0,43,0.00,,BKN260,0.00,16.00,VWS V14.01,2013-01-31 00:52:00,
2013-01-30 16:57:00,52.8,31.5,30.35,NE,41,0.0,2.0,44,0.00,,BKN260,0.00,14.00,VWS V14.01,2013-01-31 00:57:00,
2013-01-30 17:02:00,52.5,31.2,30.35,NE,41,0.0,0.0,44,0.00,,BKN220,0.00,11.00,VWS V14.01,2013-01-31 01:02:00,
2013-01-30 17:07:00,52.2,31.0,30.35,NE,41,0.0,1.0,44,0.00,,BKN220,0.00,7.00,VWS V14.01,2013-01-31 01:07:00,
2013-01-30 17:12:00,51.6,31.0,30.35,NE,34,3.0,5.0,45,0.00,,BKN220,0.00,5.00,VWS V14.01,2013-01-31 01:12:00,
2013-01-30 17:17:00,50.9,30.9,30.34,NNE,32,2.0,4.0,46,0.00,,BKN220,0.00,0.00,VWS V14.01,2013-01-31 01:17:00,
2013-01-30 17:22:00,50.5,31.0,30.35,NNE,32,1.0,3.0,47,0.00,,BKN220,0.00,0.00,VWS V14.01,2013-01-31 01:22:00,
2013-01-30 17:28:00,50.1,31.2,30.35,NNE,32,1.0,2.0,48,0.00,,BKN220,0.00,0.00,VWS V14.01,2013-01-31 01:28:00,
2013-01-30 17:33:00,49.6,31.2,30.35,NNE,32,0.0,2.0,49,0.00,,BKN220,0.00,0.00,VWS V14.01,2013-01-31 01:33:00,
2013-01-30 17:38:00,49.1,30.8,30.35,NNE,32,2.0,2.0,49,0.00,,BKN220,0.00,0.00,VWS V14.01,2013-01-31 01:38:00,
2013-01-30 17:43:00,48.7,30.9,30.35,NNE,32,0.0,1.0,50,0.00,,BKN220,0.00,0.00,VWS V14.01,2013-01-31 01:43:00,
2013-01-30 17:48:00,48.4,30.6,30.35,NNE,32,0.0,1.0,50,0.00,,BKN220,0.00,0.00,VWS V14.01,2013-01-31 01:48:00,
2013-01-30 17:53:00,48.3,30.5,30.35,NNE,32,0.0,0.0,50,0.00,,BKN220,0.00,0.00,VWS V14.01,2013-01-31 01:53:00,
2013-01-30 17:58:00,48.2,30.5,30.36,NNE,32,0.0,1.0,50,0.00,,BKN220,0.00,0.00,VWS V14.01,2013-01-31 01:58:00,
2013-01-30 18:03:00,47.6,30.4,30.35,NNE,32,0.0,1.0,51,0.00,,SCT220,0.00,0.00,VWS V14.01,2013-01-31 02:03:00,
2013-01-30 18:08:00,47.3,30.1,30.35,NNE,32,0.0,0.0,51,0.00,,SCT220,0.00,0.00,VWS V14.01,2013-01-31 02:08:00,
2013-01-30 18:13:00,46.9,30.2,30.35,NNE,32,0.0,1.0,52,0.00,,SCT220,0.00,0.00,VWS V14.01,2013-01-31 02:13:00,
2013-01-30 18:18:00,46.6,29.9,30.35,NNE,32,0.0,0.0,52,0.00,,SCT220,0.00,0.00,VWS V14.01,2013-01-31 02:18:00,
2013-01-30 18:23:00,46.3,29.6,30.36,NNE,32,0.0,0.0,52,0.00,,SCT220,0.00,0.00,VWS V14.01,2013-01-31 02:23:00,
2013-01-30 18:28:00,45.9,30.2,30.36,NNE,32,0.0,0.0,54,0.00,,SCT220,0.00,0.00,VWS V14.01,2013-01-31 02:28:00,
2013-01-30 18:33:00,45.4,29.7,30.36,NNE,32,2.0,2.0,54,0.00,,SCT220,0.00,0.00,VWS V14.01,2013-01-31 02:33:00,
2013-01-30 18:38:00,44.6,29.5,30.36,North,355,1.0,2.0,55,0.00,,SCT220,0.00,0.00,VWS V14.01,2013-01-31 02:38:00,
2013-01-30 18:43:00,43.9,29.2,30.36,North,355,2.0,2.0,56,0.00,,SCT220,0.00,0.00,VWS V14.01,2013-01-31 02:43:00,
2013-01-30 18:48:00,43.2,29.0,30.36,NW,311,0.0,2.0,57,0.00,,SCT220,0.00,0.00,VWS V14.01,2013-01-31 02:48:00,
2013-01-30 18:53:00,42.7,29.8,30.36,NW,311,1.0,1.0,60,0.00,,SCT220,0.00,0.00,VWS V14.01,2013-01-31 02:53:00,
2013-01-30 18:58:00,42.3,29.4,30.36,NW,311,1.0,2.0,60,0.00,,SCT220,0.00,0.00,VWS V14.01,2013-01-31 02:58:00,
2013-01-30 19:03:00,41.7,29.3,30.36,NNW,333,1.0,4.0,61,0.00,,FEW200,0.00,0.00,VWS V14.01,2013-01-31 03:03:00,
2013-01-30 19:08:00,41.5,29.5,30.36,NNW,333,3.0,3.0,62,0.00,,FEW200,0.00,0.00,VWS V14.01,2013-01-31 03:08:00,
2013-01-30 19:13:00,41.3,29.3,30.37,NNW,333,0.0,1.0,62,0.00,,FEW200,0.00,0.00,VWS V14.01,2013-01-31 03:13:00,
2013-01-30 19:18:00,41.1,29.1,30.37,NNW,333,0.0,1.0,62,0.00,,FEW200,0.00,0.00,VWS V14.01,2013-01-31 03:18:00,
2013-01-30 19:23:00,40.9,28.9,30.37,NNW,333,0.0,0.0,62,0.00,,FEW200,0.00,0.00,VWS V14.01,2013-01-31 03:23:00,
2013-01-30 19:28:00,40.7,29.1,30.37,NNW,333,1.0,2.0,63,0.00,,FEW200,0.00,0.00,VWS V14.01,2013-01-31 03:28:00,
2013-01-30 19:33:00,40.3,28.7,30.37,NNW,333,0.0,1.0,63,0.00,,FEW200,0.00,0.00,VWS V14.01,2013-01-31 03:33:00,
2013-01-30 19:38:00,40.0,28.8,30.37,NNW,333,0.0,1.0,64,0.00,,FEW200,0.00,0.00,VWS V14.01,2013-01-31 03:38:00,
2013-01-30 19:43:00,39.7,28.5,30.38,NNW,333,1.0,1.0,64,0.00,,FEW200,0.00,0.00,VWS V14.01,2013-01-31 03:43:00,
2013-01-30 19:48:00,39.6,28.8,30.38,NNW,333,4.0,4.0,65,0.00,,FEW200,0.00,0.00,VWS V14.01,2013-01-31 03:48:00,
2013-01-30 19:53:00,39.3,28.9,30.38,NW,314,3.0,4.0,66,0.00,,FEW200,0.00,0.00,VWS V14.01,2013-01-31 03:53:00,
2013-01-30 19:58:00,39.3,29.3,30.37,NW,312,2.0,4.0,67,0.00,,FEW200,0.00,0.00,VWS V14.01,2013-01-31 03:58:00,
2013-01-30 20:03:00,39.2,28.8,30.37,NW,312,1.0,3.0,66,0.00,,FEW200,0.00,0.00,VWS V14.01,2013-01-31 04:03:00,
2013-01-30 20:08:00,39.1,29.1,30.37,NW,312,1.0,2.0,67,0.00,,FEW200,0.00,0.00,VWS V14.01,2013-01-31 04:08:00,
2013-01-30 20:13:00,39.0,29.0,30.38,NW,312,1.0,4.0,67,0.00,,FEW200,0.00,0.00,VWS V14.01,2013-01-31 04:13:00,
2013-01-30 20:18:00,38.6,28.6,30.38,NW,312,3.0,3.0,67,0.00,,FEW200,0.00,0.00,VWS V14.01,2013-01-31 04:18:00,
2013-01-30 20:23:00,38.5,28.9,30.38,NW,312,3.0,3.0,68,0.00,,FEW200,0.00,0.00,VWS V14.01,2013-01-31 04:23:00,
2013-01-30 20:28:00,38.4,28.8,30.38,NW,312,1.0,4.0,68,0.00,,FEW200,0.00,0.00,VWS V14.01,2013-01-31 04:28:00,
2013-01-30 20:33:00,38.3,28.7,30.38,NW,312,1.0,3.0,68,0.00,,FEW200,0.00,0.00,VWS V14.01,2013-01-31 04:33:00,
2013-01-30 20:38:00,38.4,29.1,30.38,NW,312,2.0,4.0,69,0.00,,FEW200,0.00,0.00,VWS V14.01,2013-01-31 04:38:00,
2013-01-30 20:43:00,38.4,28.8,30.38,NNW,336,3.0,4.0,68,0.00,,FEW200,0.00,0.00,VWS V14.01,2013-01-31 04:43:00,
2013-01-30 20:48:00,37.6,28.4,30.39,NNW,341,4.0,4.0,69,0.00,,FEW200,0.00,0.00,VWS V14.01,2013-01-31 04:48:00,
2013-01-30 20:53:00,36.9,28.0,30.39,NNW,329,3.0,5.0,70,0.00,,FEW200,0.00,0.00,VWS V14.01,2013-01-31 04:53:00,
2013-01-30 20:58:00,36.4,27.6,30.39,NNW,329,0.0,3.0,70,0.00,,FEW200,0.00,0.00,VWS V14.01,2013-01-31 04:58:00,
2013-01-30 21:00:00,36.3,27.5,30.39,NNW,329,1.0,3.0,70,0.00,,FEW200,0.00,0.00,VWS V14.01,2013-01-31 05:00:00,
2013-01-30 21:03:00,36.0,27.5,30.39,NNW,329,0.0,3.0,71,0.00,,CLR,0.00,0.00,VWS V14.01,2013-01-31 05:03:00,
2013-01-30 21:08:00,35.8,27.7,30.39,NNW,329,3.0,3.0,72,0.00,,CLR,0.00,0.00,VWS V14.01,2013-01-31 05:08:00,
2013-01-30 21:13:00,35.7,27.6,30.39,NNW,329,1.0,2.0,72,0.00,,CLR,0.00,0.00,VWS V14.01,2013-01-31 05:13:00,
2013-01-30 21:18:00,35.6,27.8,30.39,NNW,329,1.0,2.0,73,0.00,,CLR,0.00,0.00,VWS V14.01,2013-01-31 05:18:00,
2013-01-30 21:23:00,35.5,27.4,30.39,NNW,329,0.0,1.0,72,0.00,,CLR,0.00,0.00,VWS V14.01,2013-01-31 05:23:00,
2013-01-30 21:28:00,35.4,27.6,30.39,NNW,329,2.0,2.0,73,0.00,,CLR,0.00,0.00,VWS V14.01,2013-01-31 05:28:00,
2013-01-30 21:33:00,35.3,27.2,30.39,NNW,329,1.0,1.0,72,0.00,,CLR,0.00,0.00,VWS V14.01,2013-01-31 05:33:00,
2013-01-30 21:38:00,35.0,27.2,30.39,NNW,329,2.0,2.0,73,0.00,,CLR,0.00,0.00,VWS V14.01,2013-01-31 05:38:00,
2013-01-30 21:43:00,34.9,27.5,30.39,NNW,329,2.0,2.0,74,0.00,,CLR,0.00,0.00,VWS V14.01,2013-01-31 05:43:00,
2013-01-30 21:48:00,34.9,27.5,30.39,NNW,329,1.0,2.0,74,0.00,,CLR,0.00,0.00,VWS V14.01,2013-01-31 05:48:00,
2013-01-30 21:53:00,34.8,27.4,30.39,NNW,329,2.0,3.0,74,0.00,,CLR,0.00,0.00,VWS V14.01,2013-01-31 05:53:00,
2013-01-30 21:58:00,34.8,27.4,30.39,NNW,329,2.0,3.0,74,0.00,,CLR,0.00,0.00,VWS V14.01,2013-01-31 05:58:00,
2013-01-30 22:03:00,34.7,27.3,30.39,NNW,329,2.0,2.0,74,0.00,,CLR,0.00,0.00,VWS V14.01,2013-01-31 06:03:00,
2013-01-30 22:08:00,34.7,27.6,30.40,NNW,329,2.0,3.0,75,0.00,,CLR,0.00,0.00,VWS V14.01,2013-01-31 06:08:00,
2013-01-30 22:13:00,34.7,27.6,30.40,NNW,329,0.0,3.0,75,0.00,,CLR,0.00,0.00,VWS V14.01,2013-01-31 06:13:00,
2013-01-30 22:19:00,34.8,27.4,30.40,NNW,329,2.0,3.0,74,0.00,,CLR,0.00,0.00,VWS V14.01,2013-01-31 06:19:00,
2013-01-30 22:24:00,34.7,27.6,30.40,NNW,329,0.0,3.0,75,0.00,,CLR,0.00,0.00,VWS V14.01,2013-01-31 06:24:00,
2013-01-30 22:29:00,34.7,27.6,30.39,NNW,329,0.0,1.0,75,0.00,,CLR,0.00,0.00,VWS V14.01,2013-01-31 06:29:00,
2013-01-30 22:34:00,34.6,27.2,30.40,NNW,329,1.0,2.0,74,0.00,,CLR,0.00,0.00,VWS V14.01,2013-01-31 06:34:00,
2013-01-30 22:39:00,34.5,27.4,30.40,NNW,329,1.0,3.0,75,0.00,,CLR,0.00,0.00,VWS V14.01,2013-01-31 06:39:00,
2013-01-30 22:44:00,34.4,27.3,30.40,NNW,329,1.0,3.0,75,0.00,,CLR,0.00,0.00,VWS V14.01,2013-01-31 06:44:00,
2013-01-30 22:49:00,34.3,27.2,30.40,NNW,329,1.0,2.0,75,0.00,,CLR,0.00,0.00,VWS V14.01,2013-01-31 06:49:00,
2013-01-30 22:54:00,34.1,27.0,30.40,NNW,329,1.0,2.0,75,0.00,,CLR,0.00,0.00,VWS V14.01,2013-01-31 06:54:00,
2013-01-30 22:59:00,33.9,26.8,30.40,NNW,329,0.0,2.0,75,0.00,,CLR,0.00,0.00,VWS V14.01,2013-01-31 06:59:00,
2013-01-30 23:04:00,33.8,26.7,30.40,NNW,329,0.0,2.0,75,0.00,,CLR,0.00,0.00,VWS V14.01,2013-01-31 07:04:00,
2013-01-30 23:09:00,33.4,26.3,30.40,NNW,329,1.0,2.0,75,0.00,,CLR,0.00,0.00,VWS V14.01,2013-01-31 07:09:00,
2013-01-30 23:14:00,33.1,26.4,30.40,NNW,329,0.0,2.0,76,0.00,,CLR,0.00,0.00,VWS V14.01,2013-01-31 07:14:00,
2013-01-30 23:19:00,32.9,26.5,30.40,NNW,329,0.0,1.0,77,0.00,,CLR,0.00,0.00,VWS V14.01,2013-01-31 07:19:00,
2013-01-30 23:24:00,32.5,26.1,30.40,NNW,329,1.0,1.0,77,0.00,,CLR,0.00,0.00,VWS V14.01,2013-01-31 07:24:00,
2013-01-30 23:29:00,32.4,26.3,30.41,NNW,329,0.0,2.0,78,0.00,,CLR,0.00,0.00,VWS V14.01,2013-01-31 07:29:00,
2013-01-30 23:34:00,32.4,26.6,30.40,NNW,329,1.0,3.0,79,0.00,,CLR,0.00,0.00,VWS V14.01,2013-01-31 07:34:00,
2013-01-30 23:39:00,32.4,26.3,30.40,NNW,329,0.0,1.0,78,0.00,,CLR,0.00,0.00,VWS V14.01,2013-01-31 07:39:00,
2013-01-30 23:44:00,32.0,25.6,30.41,NNW,329,1.0,1.0,77,0.00,,CLR,0.00,0.00,VWS V14.01,2013-01-31 07:44:00,
2013-01-30 23:49:00,31.4,25.4,30.41,NNW,329,1.0,2.0,78,0.00,,CLR,0.00,0.00,VWS V14.01,2013-01-31 07:49:00,
2013-01-30 23:54:00,31.3,25.6,30.41,NNW,329,0.0,2.0,79,0.00,,CLR,0.00,0.00,VWS V14.01,2013-01-31 07:54:00,
2013-01-30 23:59:00,31.2,25.5,30.40,NNW,329,2.0,2.0,79,0.00,,CLR,0.00,0.00,VWS V14.01,2013-01-31 07:59:00,